Location: Brahman Valley
(40.6513°N, 111.8855°W)
Time: 08:58:07
(UTC+00:00)

Tiros 1 despin weight - Pass Details

Date: 14 May 2021
Orbit: 594 x 641 km, 48.2° (Epoch: 22 June)

Event Time Altitude Azimuth Distance (km) Brightness Sun altitude
Rises 09:54:01 0° 294° (WNW) 2,940 - -21.1°
Reaches altitude 10° 09:56:32 10° 284° (WNW) 2,025 - -20.8°
Maximum altitude 10:00:40 32° 222° (SW) 1,095 - -20.3°
Drops below altitude 10° 10:04:44 10° 159° (SSE) 1,997 - -19.8°
Sets 10:07:13 0° 150° (SSE) 2,892 - -19.5°
